Location: Hylvaty SDH
(49.9612°N, 16.4057°E)
Time: 09:30:36
(UTC+01:00)

Tiros 1 - All Passes

Search period start: 23 January 2020 00:00
Search period end: 02 February 2020 00:00
Orbit: 630 x 664 km, 48.4° (Epoch: 22 January)

Date Brightness Start Highest point End Pass type
(mag) Time Alt. Az. Time Alt. Az. Time Alt. Az.
23 Jan - 12:51:56 10° S 12:55:23 20° SE 12:58:52 10° E daylight
23 Jan - 14:32:20 10° WSW 14:36:56 54° SSE 14:41:35 10° E daylight
23 Jan - 16:14:14 10° W 16:18:59 75° S 16:23:46 10° E daylight
23 Jan - 17:56:24 10° W 18:01:00 49° SSW 18:05:38 10° SE visible
23 Jan - 19:39:19 10° W 19:42:29 18° SW 19:45:38 10° S visible
24 Jan - 13:16:49 10° SW 13:21:03 34° SSE 13:25:21 10° E daylight
24 Jan - 14:58:12 10° WSW 15:02:54 69° S 15:07:39 10° E daylight
24 Jan - 16:40:17 10° W 16:45:00 67° SSW 16:49:46 10° ESE daylight
24 Jan - 18:22:35 10° W 18:26:49 32° SSW 18:31:03 10° SSE visible
25 Jan - 12:02:05 10° S 12:05:23 19° SE 12:08:42 10° E daylight
25 Jan - 13:42:20 10° SW 13:46:54 52° SSE 13:51:31 10° E daylight
25 Jan - 15:24:12 10° W 15:28:56 75° S 15:33:42 10° E daylight
25 Jan - 17:06:21 10° W 17:10:57 50° SSW 17:15:36 10° SE visible
25 Jan - 18:49:10 10° W 18:52:28 19° SW 18:55:47 10° S visible
26 Jan - 12:26:52 10° SSW 12:31:02 32° SSE 12:35:15 10° E daylight
26 Jan - 14:08:10 10° WSW 14:12:51 68° S 14:17:35 10° E daylight
26 Jan - 15:50:14 10° W 15:54:57 68° S 15:59:43 10° ESE daylight
26 Jan - 17:32:31 10° W 17:36:47 33° SSW 17:41:04 10° SE visible
27 Jan - 11:12:16 10° S 11:15:23 18° SE 11:18:32 10° E daylight
27 Jan - 12:52:20 10° SW 12:56:51 50° SSE 13:01:26 10° E daylight
27 Jan - 14:34:09 10° W 14:38:52 75° S 14:43:38 10° E daylight
27 Jan - 16:16:18 10° W 16:20:55 52° SSW 16:25:34 10° ESE daylight
27 Jan - 17:59:01 10° W 18:02:28 20° SW 18:05:54 10° S visible
28 Jan - 11:36:56 10° SSW 11:41:01 31° SSE 11:45:10 10° E daylight
28 Jan - 13:18:08 10° WSW 13:22:48 67° SSE 13:27:31 10° E daylight
28 Jan - 15:00:11 10° W 15:04:54 70° S 15:09:39 10° ESE daylight
28 Jan - 16:42:27 10° W 16:46:46 35° SSW 16:51:05 10° SE daylight
28 Jan - 18:27:36 10° SW 18:27:57 10° SW 18:28:18 10° SW visible
29 Jan - 10:22:27 10° S 10:25:24 17° SE 10:28:21 10° E daylight
29 Jan - 12:02:20 10° SW 12:06:49 48° SSE 12:11:22 10° E daylight
29 Jan - 13:44:07 10° W 13:48:49 75° S 13:53:34 10° E daylight
29 Jan - 15:26:15 10° W 15:30:52 54° SSW 15:35:32 10° ESE daylight
29 Jan - 17:08:54 10° W 17:12:27 21° SW 17:16:00 10° SSE visible
30 Jan - 10:47:00 10° SSW 10:51:00 29° SSE 10:55:04 10° E daylight
30 Jan - 12:28:07 10° WSW 12:32:45 65° SSE 12:37:27 10° E daylight
30 Jan - 14:10:09 10° W 14:14:50 71° S 14:19:35 10° ESE daylight
30 Jan - 15:52:23 10° W 15:56:44 36° SSW 16:01:05 10° SE daylight
30 Jan - 17:36:43 10° WSW 17:37:58 11° SW 17:39:13 10° SSW visible
31 Jan - 09:32:39 10° S 09:35:24 16° SE 09:38:09 10° ESE daylight
31 Jan - 11:12:21 10° SW 11:16:47 46° SSE 11:21:17 10° E daylight
31 Jan - 12:54:05 10° W 12:58:46 74° S 13:03:30 10° E daylight
31 Jan - 14:36:13 10° W 14:40:49 56° SSW 14:45:29 10° ESE daylight
31 Jan - 16:18:47 10° W 16:22:26 22° SW 16:26:06 10° SSE daylight
01 Feb - 09:57:04 10° SSW 10:01:00 27° SSE 10:04:57 10° E daylight
01 Feb - 11:38:06 10° WSW 11:42:43 63° SSE 11:47:23 10° E daylight
01 Feb - 13:20:07 10° W 13:24:47 72° S 13:29:31 10° ESE daylight
01 Feb - 15:02:19 10° W 15:06:41 38° SSW 15:11:05 10° SE daylight
01 Feb - 16:46:16 10° WSW 16:47:58 12° SW 16:49:41 10° SSW daylight
